Location: Newark
(48.2308°N, 120.8549°W)
Time: 22:28:08
(UTC+00:00)

Transit 2A Rocket - Pass Details

Date: 28 May 2020
Orbit: 584 x 919 km, 66.7° (Epoch: 10 July)

Event Time Altitude Azimuth Distance (km) Brightness Sun altitude
Rises 16:14:43 0° 320° (NW) 3,500 8.0 38.0°
Reaches altitude 10° 16:17:17 10° 315° (NW) 2,584 7.4 38.5°
Maximum altitude 16:22:59 44° 245° (WSW) 1,248 6.2 39.4°
Drops below altitude 10° 16:28:44 10° 175° (S) 2,598 8.0 40.3°
Sets 16:31:20 0° 169° (S) 3,520 8.7 40.8°
